CAPE
1740 1874 2304 2960 481 404 410 539 554 659 955 560 333 228 316 224 1074 1569 1820 2514 2794 2704 2904 3042 2808 2901 2624 2477 2518 2726 2472 2669 2263 2152 2851 2992 2952 3000 2524 1888 2777 3310 2750 2448 2387 2458 3567 3400 2704 2873 3668 4304 3984 4486 4964 4825 4686 4338 4746 5194 5096 5494 4934
1277 1543 2077 2439 1818 472 528 688 742 678 783 504 320 683 420 378 1068 974 1866 2490 2574 2630 2690 2790 2955 2763 2689 2427 2346 2751 2681 2618 2527 2763 2236 3050 3386 3451 2926 2806 2862 3311 3570 2670 5054 3385 3035 2871 2789 3051 3258 3841 3396 4585 3932 4405 4040 3775 3776 4268 3876 4911 4714
524 1157 1670 2506 2612 1269 758 248 685 682 551 163 170 233 562 1089 949 1298 1832 1940 2523 2692 2493 2503 2923 2499 2489 2620 2554 2602 2307 2202 2450 2050 1837 1632 1850 2075 2515 2676 2391 2551 2436 2418 3634 2853 2454 2514 3718 3282 3516 3558 2652 4336 4203 3928 3917 3534 4248 4357 3733 4085 4503
532 769 1672 2204 2515 3077 1035 694 686 700 362 399 408 179 640 1610 768 1634 1370 1735 2042 2472 2541 2312 2450 2097 2374 2604 2408 2602 2320 2297 2070 1599 1404 1344 1724 1599 1903 2404 2900 2118 2457 2457 2149 1953 1988 2372 2656 3183 3531 3526 3343 3893 3982 3624 3222 3496 3948 4896 4228 3625 4128
1374 1226 1522 2170 2276 2113 2252 844 656 892 638 732 884 1008 880 950 903 836 1088 1380 1336 1810 2030 1764 2033 2122 2180 2207 1760 1913 1898 1810 1885 1658 1600 1513 2394 2111 1991 1700 1911 2011 2192 2121 2494 2753 3316 3136 2554 3010 3306 3600 3108 3647 3365 3487 3419 3754 3759 4102 4039 3600 4200
1388 1212 1185 2158 2126 2354 2221 2480 930 863 891 1217 1241 1346 1102 1130 670 485 826 1034 1066 1590 1730 1694 1426 1730 1614 1895 1666 1586 1922 2232 2119 2258 1890 1861 2122 1857 1965 2099 1796 1842 2232 2236 2040 2154 2338 2638 2012 2325 2657 2578 2348 2198 2651 3054 2994 3072 3776 3950 3648 3065 2910
1329 1224 1334 2007 2118 2260 1895 1596 1709 1872 1032 1662 1576 1468 1437 1207 1296 1418 1498 1350 1474 1898 1863 1476 850 1200 1560 1596 1588 1683 1894 1598 1814 1349 1226 995 2005 1716 1870 1876 2226 1376 1512 2382 2148 1889 2602 2710 2611 2479 2469 2030 2494 1703 2964 3524 3045 3072 3776 3974 4048 3978 3607
1170 1317 1000 1631 1940 1714 1414 1298 1092 1066 1906 1826 1715 1466 1362 1644 2946 2623 3297 1390 1559 2183 1910 1393 544 1212 1512 1508 1286 836 1097 1545 1426 1279 1208 1095 851 1335 1335 1485 2040 1571 1686 1459 1929 1781 1786 2174 2058 2474 2531 2285 2036 2465 2847 3200 3465 2433 2970 3536 3708 3438 2685
1075 1759 1413 1376 1521 1561 1481 1171 1107 970 1375 1753 1646 1498 1930 2729 3038 2727 2468 2594 2790 2076 1821 1088 720 1507 1496 1313 1072 1176 919 1116 1318 1219 1190 930 738 783 846 1054 1348 1832 1648 1391 1476 1736 1707 1859 1870 2703 2986 2916 2690 3024 2828 3066 2727 2671 2778 3218 3564 3222 2483
1944 1942 1716 1234 1587 1701 1454 1346 1548 1510 1746 1832 2213 2582 3590 3745 3538 3304 3583 3647 2845 2420 1875 993 1055 1144 1445 1594 1387 515 674 898 768 916 868 670 618 584 588 668 944 1675 1772 1673 1393 1427 2162 1845 2325 3423 3557 3078 3014 2835 2870 2822 3002 2712 2699 3234 3379 3226 3260
2368 2204 2238 2029 1842 1905 2003 2332 2825 3008 2968 3246 3046 3106 3326 2727 2970 2552 2138 2296 2610 3062 2848 2122 1817 1917 1890 1530 1254 1315 582 402 496 566 724 600 446 354 351 401 551 1161 1378 1477 1333 1387 1714 2170 2156 3114 3071 2480 2478 2814 3109 2770 3260 3277 2338 2366 2644 3030 2838
2399 2236 1956 1478 1528 1576 1329 2786 3283 2632 2908 3495 2759 2004 2245 2242 2288 2231 1676 1880 2242 2114 2562 2652 2714 3120 1472 2148 1983 2192 2095 780 446 368 442 559 450 314 277 294 298 485 1148 1400 1776 1695 1538 1609 1686 2292 2532 2493 2769 2751 3064 3442 3362 3492 3262 2247 2164 2924 2823
1923 1898 1698 1579 1763 1732 1780 1826 1997 1677 2266 3428 3211 3228 3165 3214 2686 2138 1569 1806 1946 2144 2059 1724 2875 3277 2604 3071 2158 1951 1966 1408 1416 1007 388 701 523 404 264 248 240 253 582 1119 1625 1434 1421 1473 1826 1945 1876 2538 2891 2697 3166 3271 2812 3340 3596 3149 2823 2882 2864
1510 1708 1718 1757 1500 1554 1504 1624 1751 1552 2091 3059 3283 3495 3859 3996 3489 2405 2074 1960 1956 1957 1869 2175 3355 3548 3367 3117 2984 2237 1546 1270 727 912 1558 1904 1761 1478 528 226 170 173 500 1484 1409 1264 1392 1344 1179 1260 1739 2040 2408 2664 2763 3144 2928 3360 3369 3035 2882 2812 2734
1435 1352 1400 1446 1556 1474 1412 1427 1478 1333 1419 2006 2419 2240 2377 2601 2829 3119 2812 2560 2135 2293 2893 3511 4104 3778 3724 3927 3642 3372 3367 2966 2639 2320 2683 2617 3039 3278 2265 1393 710 891 941 1068 1215 1133 889 925 964 1115 1483 1544 2171 2550 2463 2041 2501 2785 2613 2719 2897 2320 2716
1376 1188 1284 1398 1356 1224 1210 1217 1156 1164 1053 1407 1540 1361 1298 1583 1885 2169 2505 2288 2237 2114 2156 2973 3433 3444 3664 3929 4166 3996 3556 3707 3450 4292 4390 3987 2946 2671 2960 2179 1992 1306 742 935 1243 1331 1609 1430 1260 927 1095 1365 2033 2286 1898 1709 1757 2509 2149 2048 2880 2697 2061
1167 1218 1326 1419 1126 1204 1121 1136 1167 1144 1252 1250 731 623 402 739 1278 1412 1565 1793 1778 1678 1733 1948 2132 2286 2381 2949 3224 3424 3290 3220 3658 3663 3497 3014 3043 3988 3970 3787 3422 2877 1978 1726 2002 2418 1714 1544 1484 565 1157 1190 1437 1786 1735 1387 1148 1691 1795 1504 1809 2265 2647
996 996 1034 885 852 956 1106 1089 930 1016 782 1027 1229 1565 1343 1174 1274 1166 1438 1499 1555 1739 1931 2180 2106 1814 1774 1805 2024 2500 2777 2992 2776 2710 2333 1922 2481 2220 2507 2814 2946 3335 2936 2674 2466 1971 1284 1378 1126 1386 1020 881 832 1052 1064 1340 1124 880 711 1212 1612 2113 2367
812 1032 912 965 985 860 843 925 1008 931 889 832 786 758 964 1600 1744 1778 1994 1871 1713 1753 1913 1958 1906 1781 1752 1900 1903 1811 1974 2097 2022 1947 1921 1948 1997 2131 2431 2459 2473 2274 2673 2728 2452 1864 1724 1745 1781 1653 1654 1565 973 776 665 1325 1216 832 488 719 1232 1195 1899
768 860 780 692 737 757 574 668 868 991 1048 1124 992 924 1146 1128 1142 1075 1258 1170 1308 1468 1671 1791 1753 1742 1608 1576 1617 1825 1866 1717 1670 1625 1324 1339 1443 2004 2044 2031 2029 1840 3067 2900 2207 1522 1474 1470 1720 1850 1849 1702 1602 2002 1311 616 559 442 397 276 453 712 1183
598 712 722 690 540 488 169 398 510 463 595 805 940 1067 928 878 836 917 1042 1084 1174 1272 1283 1247 1230 1099 1012 1074 1084 1122 1454 1330 1546 1512 1355 1500 1724 1968 2076 2333 2470 1916 2651 2390 1928 2180 2229 2173 2350 1957 1319 1030 882 978 813 508 262 476 491 333 270 555 1052
566 667 715 646 579 542 425 266 392 406 450 419 429 618 491 613 664 682 897 967 1000 1042 1048 1087 1117 1186 1189 1118 969 1053 1039 990 1008 864 812 882 1138 1254 1361 1412 1312 1267 1316 2067 2344 2275 2316 2254 1943 1476 1328 1314 1087 555 570 421 349 441 429 367 500 834 1320
385 473 613 605 544 489 424 382 283 332 468 504 490 607 591 667 745 840 799 751 760 588 715 826 801 870 1002 987 930 854 846 783 727 734 759 737 768 813 802 760 762 912 1126 1136 1485 1612 1952 2104 1543 1342 1212 1037 1127 1089 673 412 418 506 702 676 734 528 1482
451 386 455 590 463 483 466 422 344 282 349 465 454 474 516 559 530 598 656 650 632 598 595 582 465 565 591 488 638 681 679 623 617 662 624 655 734 770 778 794 745 736 826 1157 1281 1270 1453 1466 1326 1103 1062 1016 1032 983 583 426 624 901 742 824 832 901 1478
565 490 470 464 558 468 383 376 362 312 225 285 489 413 325 236 394 471 562 534 510 514 519 480 380 382 449 478 443 448 474 450 470 436 453 444 525 585 641 683 683 742 866 919 893 997 936 1034 902 810 914 947 1156 938 664 594 651 950 1048 1037 1040 1031 1613
440 465 450 301 210 285 364 392 373 348 266 190 184 214 259 226 249 289 380 492 490 481 510 474 383 330 361 448 491 499 435 430 435 404 352 362 364 480 509 456 671 742 834 876 894 590 584 612 634 657 685 828 951 1017 710 508 568 686 1152 1311 1320 1368 1437
244 200 221 214 214 209 155 217 228 302 315 267 256 279 332 378 346 350 368 414 422 390 412 396 365 314 298 382 428 439 412 345 328 417 405 359 434 434 441 566 384 504 379 386 412 418 401 372 353 534 595 594 762 734 768 608 642 763 1092 1274 1281 1367 1366
93 0 108 170 263 284 295 246 227 234 266 269 304 258 330 351 354 409 374 367 359 329 292 314 306 312 356 302 374 380 334 283 259 236 290 278 304 356 403 379 683 544 234 239 264 274 236 152 313 255 392 462 596 604 980 907 758 830 868 998 1038 1011 1000
0 0 0 0 48 178 253 272 251 242 238 288 357 297 330 359 375 386 363 334 303 257 251 276 260 252 308 300 248 268 330 29 33 25 276 294 318 326 339 536 598 608 691 636 482 426 304 180 157 266 211 251 544 583 682 836 728 623 602 620 662 606 630
0 0 0 0 0 0 0 93 146 190 182 16 244 307 320 257 255 302 327 325 278 255 233 212 234 182 174 197 272 282 111 18 22 43 264 242 196 128 295 298 278 496 862 666 427 498 412 320 152 16 150 5 264 485 571 556 424 536 554 573 532 435 383
4 0 0 0 0 0 0 0 0 0 0 0 0 0 261 300 256 224 275 271 174 201 228 248 232 200 194 182 178 204 232 198 222 245 26 199 64 112 80 62 151 172 309 308 284 340 471 480 249 269 249 134 74 79 386 357 289 401 384 332 298 252 243
6 4 1 0 0 0 0 0 0 0 0 0 0 0 0 152 198 234 198 49 109 0 0 137 212 167 107 101 0 147 147 202 244 215 0 10 60 38 20 17 4 106 142 110 176 105 262 164 206 228 291 302 238 178 214 267 292 310 304 309 278 253 262
0 0 0 0 0 0 0 0 0 0 0 0 0 0 0 0 28 1 1 0 0 23 0 0 2 1 37 1 0 0 0 0 0 0 0 0 1 1 169 16 26 24 0 0 0 0 6 10 70 166 27 98 60 121 122 221 234 219 216 186 171 182 202
0 0 0 0 0 0 0 0 0 0 0 0 0 0 0 0 0 0 0 0 0 0 0 0 0 0 0 56 5 63 93 0 0 0 0 0 0 10 0 0 0 0 0 0 0 0 0 0 6 3 3 9 38 26 13 1 0 0 0 44 0 53 59
0 0 0 0 0 0 0 0 0 0 0 0 0 0 0 0 0 0 0 0 0 0 9 8 12 2 0 0 1 12 6 8 0 0 0 0 0 0 0 0 0 0 0 0 0 0 0 0 0 0 0 0 0 0 0 0 0 0 0 0 0 0 0
0 0 0 0 0 0 0 0 0 0 0 0 0 0 0 0 0 0 0 0 0 0 0 0 10 8 0 0 0 0 0 2 0 0 0 0 12 0 0 0 0 0 0 0 0 0 0 0 0 0 0 0 0 0 0 0 0 0 0 0 0 0 0
92 112 88 9 4 16 2 0 0 0 0 0 0 0 0 0 0 0 0 0 0 0 0 0 0 7 0 0 0 0 0 0 0 0 0 0 0 0 7 0 0 0 0 0 0 0 0 0 0 0 0 0 0 0 0 0 0 0 0 0 0 0 0
222 460 510 257 8 2 0 0 0 0 0 0 0 0 2 0 0 0 0 0 0 0 0 0 0 2 1 1 0 0 0 0 0 0 0 0 0 0 4 7 0 0 0 0 0 0 0 0 0 0 0 0 0 0 0 0 0 0 0 0 0 0 0
Wind_Speed
7 13 17 18 11 11 14 16 17 17 18 19 19 17 17 13 19 18 17 14 14 12 13 12 11 11 9 9 8 7 6 4 6 5 6 4 3 1 3 2 3 1 1 1 1 2 3 3 4 4 4 5 4 3 2 2 2 4 3 3 3 2 3
3 7 10 19 14 13 16 19 20 18 19 18 18 17 16 18 22 19 19 17 15 14 13 13 14 12 11 11 9 10 8 6 6 6 6 5 4 3 4 3 3 2 1 1 4 3 2 5 3 5 5 5 4 3 4 3 3 2 2 1 0 2 2
5 7 9 13 20 15 17 18 20 18 19 17 15 16 16 20 21 22 22 19 17 16 14 14 14 13 13 12 12 12 10 9 7 6 7 6 6 6 3 5 3 3 2 3 1 1 1 1 3 4 6 5 5 6 2 3 3 1 3 1 1 2 1
7 8 7 13 17 21 14 20 20 19 18 17 16 16 16 21 20 24 23 20 19 17 16 16 15 15 14 14 13 14 11 10 8 8 7 7 7 7 6 6 5 4 4 4 1 1 3 0 1 1 3 4 3 5 4 2 3 2 4 2 1 1 3
10 8 8 12 12 16 13 17 19 20 19 19 19 19 19 19 20 20 22 20 19 19 18 18 17 17 16 15 14 14 12 11 8 9 8 8 10 8 7 6 7 4 5 3 3 4 4 4 1 1 1 2 2 2 2 2 2 1 2 3 1 1 3
9 7 8 11 11 11 14 16 16 20 21 22 22 23 19 17 17 17 18 18 18 20 19 19 17 20 18 17 16 16 15 13 11 10 9 12 13 10 8 7 6 5 8 4 5 6 5 2 2 2 3 4 3 3 3 2 2 3 3 2 2 2 3
13 9 8 10 10 12 11 14 18 19 22 26 27 23 22 19 17 18 18 17 17 19 17 17 18 20 18 19 18 19 17 15 13 10 10 9 13 11 10 9 6 6 6 7 5 6 7 3 3 3 2 3 3 4 5 1 2 3 2 3 2 1 2
12 9 6 8 11 10 12 16 15 17 22 27 29 24 23 22 25 25 21 15 17 17 15 14 15 20 18 18 19 18 18 16 15 13 12 10 11 10 11 9 10 10 9 7 8 8 6 6 4 5 4 1 2 3 6 3 2 2 3 3 3 3 3
11 10 9 9 11 11 13 15 15 14 15 21 24 25 25 26 26 23 23 20 20 16 15 13 13 18 17 16 18 17 17 16 17 15 13 12 11 11 10 10 9 13 11 8 9 8 7 7 5 9 7 5 4 5 6 5 4 4 3 4 4 3 2
10 14 12 15 13 15 15 16 16 14 13 16 20 27 28 29 28 27 24 21 21 18 16 14 13 15 16 16 16 15 16 16 17 16 15 13 13 12 12 11 11 13 13 10 9 9 9 8 8 12 11 9 7 6 5 7 5 4 4 5 5 5 5
16 17 22 24 23 18 21 20 24 22 20 21 27 29 26 26 26 26 23 22 23 21 19 16 14 16 16 15 15 15 14 15 16 15 15 14 14 13 13 12 12 14 14 11 10 11 10 10 10 13 12 10 7 8 7 7 7 5 4 6 6 5 5
20 22 26 25 21 21 22 18 24 27 26 25 26 23 22 23 25 26 25 24 24 24 23 21 17 21 18 17 17 16 16 16 15 15 15 14 14 14 14 14 13 14 16 14 15 14 11 11 11 13 13 11 9 9 9 9 9 8 6 5 6 7 7
25 24 22 21 19 18 19 22 23 23 21 21 22 21 20 20 22 23 22 24 26 28 23 17 15 22 21 22 19 18 18 17 17 17 15 15 15 16 16 15 15 12 15 16 16 14 13 12 12 14 13 13 11 10 11 10 9 10 10 9 9 9 8
28 25 24 22 19 19 19 20 17 18 20 22 24 24 24 23 23 21 18 19 23 27 20 20 20 25 24 23 21 18 17 18 16 15 18 19 19 17 16 15 14 15 16 20 15 15 15 13 13 14 15 14 13 13 13 13 12 12 12 11 11 11 11
19 25 22 18 17 17 17 16 15 16 17 22 25 28 29 28 26 25 23 21 21 21 22 28 31 30 27 24 21 19 20 21 21 20 20 20 21 21 20 18 17 17 19 18 17 15 15 15 14 15 16 16 16 14 14 14 13 15 14 13 12 13 13
16 20 22 23 22 19 18 15 15 15 15 19 26 30 32 29 24 22 19 19 22 23 25 28 33 33 29 26 24 24 23 23 26 29 30 27 22 22 22 20 20 19 18 19 18 19 19 18 15 15 17 19 19 18 16 16 16 18 12 14 16 17 15
17 21 28 30 25 22 22 19 20 20 20 17 18 21 22 16 17 17 14 14 16 18 17 22 31 33 29 25 26 26 28 30 30 30 32 33 32 30 28 28 27 28 27 27 27 24 19 18 22 20 22 20 21 21 19 18 18 20 16 13 15 17 19
22 20 28 29 21 20 23 22 20 23 25 19 15 17 17 14 12 11 12 13 14 14 12 14 21 27 30 28 27 27 28 29 30 32 34 33 31 29 28 27 26 25 26 26 25 26 24 21 17 24 23 18 24 23 22 21 23 24 16 18 20 20 20
34 28 33 35 35 29 29 31 28 25 27 27 24 25 24 20 14 9 11 13 13 11 10 11 15 21 24 29 31 30 31 30 30 34 38 33 29 29 29 26 25 25 25 26 28 28 26 26 28 25 26 28 29 24 23 28 35 30 25 20 20 20 18
46 40 39 41 43 39 34 32 30 26 23 25 28 27 23 23 24 25 24 21 16 11 10 10 13 15 18 20 23 27 31 33 33 34 37 32 28 28 24 21 22 24 27 31 32 29 27 27 27 29 32 33 32 32 34 40 40 41 35 22 16 19 20
47 47 45 44 45 45 40 34 31 28 24 21 20 20 18 16 21 26 28 25 26 25 25 24 24 22 20 22 24 22 26 29 31 35 37 36 33 32 30 30 31 30 33 33 33 32 31 30 30 31 32 33 36 38 40 38 45 42 39 34 27 25 27
49 47 48 47 47 48 47 43 41 40 38 33 28 28 27 25 26 30 33 32 30 29 30 29 26 23 22 21 19 21 23 25 29 31 32 33 32 31 32 33 34 34 35 35 36 36 36 34 33 32 33 36 37 36 35 39 44 43 39 35 36 35 32
51 50 50 51 51 49 49 50 50 49 46 44 43 41 40 38 36 37 36 36 34 32 31 31 30 27 26 24 21 23 24 24 24 24 24 29 29 28 30 34 37 36 35 35 37 37 33 30 30 32 33 35 34 33 34 36 39 41 37 36 40 39 37
50 52 54 54 56 57 53 50 50 50 48 46 44 44 42 39 37 38 39 40 39 38 35 32 32 31 28 27 26 26 25 24 22 21 22 24 23 22 21 24 28 30 29 26 27 28 28 29 28 28 30 32 32 32 33 33 36 37 38 40 40 38 37
51 50 50 52 54 56 58 58 57 56 52 52 51 47 46 42 38 41 41 41 41 41 39 35 33 31 30 30 29 28 28 28 28 27 28 29 27 24 23 23 23 23 19 20 19 19 21 22 22 23 27 29 32 36 40 39 38 39 36 38 41 38 35
51 51 51 51 53 54 55 57 58 59 59 57 56 54 52 51 48 45 44 44 43 43 42 39 36 34 33 32 31 30 29 28 28 27 28 28 27 25 25 26 26 25 24 25 24 25 26 25 20 17 23 25 30 36 42 44 42 40 38 36 40 40 35
51 53 53 53 54 55 56 57 58 59 59 55 53 54 53 51 51 48 45 45 44 44 43 40 38 37 33 32 33 32 31 29 28 28 27 27 27 25 27 25 27 26 25 25 25 25 28 30 31 28 25 28 31 32 34 38 39 36 35 32 34 40 40
nan nan 53 54 55 55 54 55 57 58 58 56 54 53 52 51 50 49 47 46 47 46 43 42 40 38 37 35 34 34 32 28 27 30 31 31 31 31 31 31 30 27 27 25 25 25 27 28 29 29 28 27 29 29 29 32 34 26 24 22 22 26 28
nan nan nan nan nan 53 53 54 55 56 55 54 54 52 51 52 52 51 48 47 47 45 43 42 42 40 37 36 36 37 34 nan nan nan 34 35 33 33 34 33 34 33 32 30 30 28 28 29 29 29 29 28 27 26 27 28 27 25 24 24 25 23 23
nan nan nan nan nan nan nan nan 52 52 54 nan 53 52 51 50 50 50 50 49 48 47 45 42 41 40 38 37 38 36 35 nan nan nan 36 35 34 35 32 33 34 35 33 32 32 31 30 29 29 nan 31 nan 29 29 29 28 27 27 31 30 27 25 24
nan nan nan nan nan nan nan nan nan nan nan nan nan nan 49 49 50 51 52 50 50 49 45 43 41 41 42 41 40 39 38 37 37 38 nan 37 nan 34 nan nan 36 37 36 37 35 34 34 33 32 33 33 33 nan nan 34 32 31 31 31 29 27 25 24
nan nan nan nan nan nan nan nan nan nan nan nan nan nan nan 48 50 51 48 nan 49 nan nan 41 42 42 42 42 nan 41 42 41 40 40 nan nan nan nan nan nan nan 37 37 36 35 35 35 33 34 37 35 35 34 36 36 35 34 33 31 28 28 27 22
nan nan nan nan nan nan nan nan nan nan nan nan nan nan nan nan nan nan nan nan nan nan nan nan nan nan nan nan nan nan nan nan nan nan nan nan nan nan 41 nan nan nan nan nan nan nan nan nan nan 35 nan nan nan 35 37 36 35 34 31 30 29 29 28
nan nan nan nan nan nan nan nan nan nan nan nan nan nan nan nan nan nan nan nan nan nan nan nan nan nan nan nan nan nan nan nan nan nan nan nan nan nan nan nan nan nan nan nan nan nan nan nan nan nan nan nan nan nan nan nan nan nan nan nan nan nan nan
nan nan nan nan nan nan nan nan nan nan nan nan nan nan nan nan nan nan nan nan nan nan nan nan nan nan nan nan nan nan nan nan nan nan nan nan nan nan nan nan nan nan nan nan nan nan nan nan nan nan nan nan nan nan nan nan nan nan nan nan nan nan nan
nan nan nan nan nan nan nan nan nan nan nan nan nan nan nan nan nan nan nan nan nan nan nan nan nan nan nan nan nan nan nan nan nan nan nan nan nan nan nan nan nan nan nan nan nan nan nan nan nan nan nan nan nan nan nan nan nan nan nan nan nan nan nan
nan 38 nan nan nan nan nan nan nan nan nan nan nan nan nan nan nan nan nan nan nan nan nan nan nan nan nan nan nan nan nan nan nan nan nan nan nan nan nan nan nan nan nan nan nan nan nan nan nan nan nan nan nan nan nan nan nan nan nan nan nan nan nan
38 41 45 44 nan nan nan nan nan nan nan nan nan nan nan nan nan nan nan nan nan nan nan nan nan nan nan nan nan nan nan nan nan nan nan nan nan nan nan nan nan nan nan nan nan nan nan nan nan nan nan nan nan nan nan nan nan nan nan nan nan nan nan
Wind_Direction
205 205 198 216 254 260 264 264 267 265 264 266 265 264 263 260 253 256 263 266 269 272 271 273 271 264 269 262 270 263 260 255 258 269 270 260 266 249 302 338 327 232 187 27 0 353 312 304 292 319 311 323 330 351 12 -0 33 12 4 27 1 349 348
259 215 202 207 221 266 262 265 263 263 267 268 269 262 260 259 256 263 261 264 269 274 275 276 272 268 271 263 265 265 268 267 262 262 274 273 275 261 277 292 288 322 223 236 201 213 274 326 350 330 320 332 338 339 354 7 11 32 21 14 67 337 356
252 230 214 219 214 234 268 265 260 261 266 272 275 271 262 251 253 254 261 267 269 272 276 279 274 276 269 267 264 269 268 271 272 282 289 296 309 305 274 274 300 295 306 263 210 270 216 48 328 325 318 336 351 335 359 359 338 42 279 32 37 342 2
258 257 236 228 227 215 257 259 256 252 263 265 264 270 263 253 257 253 260 266 272 273 274 276 278 279 276 270 270 269 271 268 272 281 287 286 300 294 275 273 263 257 260 284 295 231 256 138 330 296 332 328 335 321 3 357 335 353 314 359 60 9 300
242 252 250 245 232 228 222 260 247 241 253 254 251 254 256 259 259 259 262 267 270 274 274 275 273 275 270 276 269 271 275 279 271 269 268 262 265 260 266 285 284 284 249 245 248 249 229 217 288 267 305 294 324 327 350 316 333 307 308 334 4 315 306
270 265 259 253 245 239 219 231 241 247 248 249 251 249 251 259 262 270 266 268 266 263 263 270 275 271 274 277 273 274 275 273 264 259 257 254 258 265 267 249 258 279 282 255 258 280 266 228 266 260 342 341 10 11 359 2 343 355 333 324 342 337 342
244 244 260 275 264 249 237 230 221 235 242 241 247 248 246 251 252 251 256 260 259 265 265 269 273 274 266 269 268 273 279 282 279 283 274 276 275 271 262 261 260 270 261 266 256 260 281 281 283 276 314 329 333 16 306 315 303 313 292 320 312 309 283
265 260 290 290 281 272 249 235 234 218 222 241 241 245 246 243 238 234 240 265 261 262 263 264 268 264 262 262 267 273 278 281 279 279 272 277 276 273 277 282 277 264 248 257 254 258 260 280 294 283 276 287 335 315 304 303 278 316 292 304 297 325 333
257 268 274 296 291 273 256 246 237 233 220 230 236 241 239 238 238 243 242 247 248 256 265 265 257 262 262 258 262 269 271 272 275 274 276 277 271 276 271 270 269 272 272 263 266 263 263 264 271 259 267 258 251 267 292 299 305 302 276 275 292 291 307
256 259 258 257 246 249 250 248 236 234 236 242 233 234 234 234 237 242 242 240 244 245 259 260 241 254 254 253 254 269 269 267 266 272 273 270 266 270 270 265 262 264 270 264 261 271 257 257 270 263 261 258 260 251 252 273 285 301 305 290 277 284 284
255 254 250 243 241 240 241 237 233 227 228 232 236 237 235 240 242 246 245 243 238 236 236 244 247 249 254 251 250 249 255 267 266 268 269 267 262 265 264 263 260 260 268 267 263 263 260 257 258 260 264 266 265 267 260 267 271 269 289 277 281 288 283
251 245 244 248 250 256 258 243 240 230 220 226 233 237 234 237 242 243 242 242 240 234 235 224 238 251 259 246 245 244 240 244 255 259 259 256 256 257 259 258 256 258 265 265 262 259 263 263 260 263 265 265 262 263 267 260 268 272 271 278 274 264 272
244 242 251 257 257 253 245 243 251 249 236 229 238 237 236 239 246 247 246 245 242 239 237 246 236 252 251 244 244 242 240 241 234 244 252 250 244 246 247 252 258 257 268 269 266 266 269 267 264 260 266 268 272 271 264 264 265 264 267 268 267 257 261
246 242 244 241 243 249 251 254 255 232 226 237 237 238 236 232 238 253 256 255 247 249 244 246 247 251 250 249 245 240 242 245 244 242 240 240 243 240 241 248 249 253 256 265 264 266 267 269 268 266 266 268 271 268 266 265 262 260 260 260 267 272 263
245 242 237 246 248 240 245 258 252 235 224 231 232 231 233 232 229 231 239 250 257 257 255 247 245 244 246 246 247 241 237 238 240 238 239 239 234 233 234 236 241 243 242 250 264 262 261 262 260 262 270 269 264 267 268 267 267 261 255 259 258 261 261
220 227 237 240 237 239 233 232 239 244 241 240 235 231 224 224 228 230 239 246 247 249 253 249 243 238 239 243 242 243 243 242 242 236 233 231 234 234 229 227 229 229 235 248 263 257 252 251 258 275 278 274 270 265 266 266 268 270 274 264 261 258 260
231 228 233 231 231 237 235 232 234 237 247 252 255 246 243 236 233 235 240 252 258 262 259 242 234 230 236 239 240 242 243 242 242 241 241 237 230 231 230 226 227 232 234 228 225 232 239 249 240 247 253 264 269 270 268 264 257 270 274 278 278 261 258
261 254 239 239 239 230 228 236 247 241 241 235 243 254 254 254 263 266 269 271 273 274 265 250 236 231 231 233 235 237 240 242 242 243 240 236 232 232 232 232 232 234 234 234 235 242 236 236 259 265 271 264 259 261 262 257 260 255 258 277 280 273 263
255 251 252 247 247 242 234 234 240 249 238 228 236 242 233 232 239 246 263 278 283 287 286 267 251 243 237 234 234 235 237 236 238 241 241 232 232 231 230 231 235 238 240 241 243 242 242 238 233 238 248 260 261 252 253 256 235 225 245 253 272 282 273
242 249 248 244 246 246 246 242 238 240 241 233 231 238 233 230 230 235 238 243 250 268 276 275 272 265 255 248 243 240 238 238 238 239 250 252 242 243 244 239 244 246 251 254 250 249 246 242 241 241 245 248 250 253 254 250 234 226 213 224 259 277 274
239 243 245 245 244 243 245 249 246 244 241 236 235 239 241 233 238 242 247 246 247 249 252 249 245 245 248 247 241 237 239 238 240 242 244 247 249 250 250 247 246 248 250 257 261 259 257 253 249 249 248 249 251 253 256 254 246 234 229 230 242 251 261
238 240 244 245 247 246 246 248 250 249 251 255 257 258 260 261 258 252 253 254 251 252 255 256 255 257 255 251 246 246 244 242 241 246 249 250 250 250 248 245 244 247 249 251 258 259 255 252 250 248 250 253 255 259 258 255 251 250 243 237 239 242 251
239 242 242 242 245 250 250 249 249 250 249 248 251 255 253 250 248 251 253 254 253 253 252 255 255 252 257 255 246 246 248 252 255 251 251 252 254 253 249 246 244 246 250 252 253 254 250 249 251 250 252 257 261 262 259 254 253 258 255 248 241 241 245
240 239 238 238 236 236 242 251 255 255 254 254 256 256 257 257 258 256 254 254 252 250 249 248 250 250 248 250 251 249 252 256 261 261 258 259 260 259 255 248 248 246 244 253 256 251 246 249 253 255 254 260 263 263 263 260 252 249 254 256 252 250 248
240 240 241 241 240 240 238 238 239 245 252 255 252 256 261 261 255 257 257 258 256 255 252 248 247 247 249 246 245 248 252 257 259 257 257 258 258 258 256 257 251 254 254 249 244 245 247 251 257 258 262 263 264 267 263 259 256 253 253 256 255 254 254
237 239 241 241 243 244 242 241 243 243 241 241 243 246 248 250 252 253 255 254 255 255 253 250 247 245 244 247 247 248 248 247 249 254 257 257 256 253 253 250 250 252 252 249 248 248 246 246 250 267 273 273 271 265 260 257 257 259 256 253 253 253 257
242 241 242 244 244 243 243 243 244 244 243 243 246 249 248 248 249 249 249 253 254 254 254 252 251 251 247 247 252 253 252 246 245 247 247 255 256 255 254 255 255 253 254 255 256 256 253 255 253 250 257 269 270 266 257 256 260 262 262 255 252 251 256
nan nan 244 248 249 246 246 246 245 245 245 244 244 245 249 250 250 251 249 249 250 251 252 252 249 249 249 246 246 248 249 252 253 248 246 246 248 249 249 250 252 253 256 256 258 259 258 254 257 260 260 261 267 259 250 253 260 263 262 264 263 261 259
nan nan nan nan nan 248 249 247 245 246 247 245 244 245 245 247 248 249 249 247 246 250 251 252 251 248 247 245 242 243 241 nan nan nan 247 245 241 244 249 249 251 250 249 248 254 258 260 261 263 264 266 266 263 261 259 257 259 263 272 278 276 272 270
nan nan nan nan nan nan nan nan 243 245 246 nan 246 244 243 243 245 245 245 245 246 245 246 247 251 253 247 245 246 245 241 nan nan nan 250 249 247 243 243 248 247 246 250 252 251 255 259 260 262 nan 262 nan 266 269 267 265 264 270 278 281 276 272 275
nan nan nan nan nan nan nan nan nan nan nan nan nan nan 249 247 243 241 240 239 241 242 240 243 243 244 245 242 240 243 241 238 238 240 nan 247 nan 252 nan nan 248 246 242 245 244 248 253 253 257 260 262 263 nan nan 271 273 277 278 281 284 279 273 269
nan nan nan nan nan nan nan nan nan nan nan nan nan nan nan 246 245 241 239 nan 237 nan nan 235 238 238 241 245 nan 236 241 242 239 235 nan nan nan nan nan nan nan 243 244 245 249 247 247 253 256 260 260 263 264 266 273 279 277 271 268 265 265 269 270
nan nan nan nan nan nan nan nan nan nan nan nan nan nan nan nan nan nan nan nan nan nan nan nan nan nan nan nan nan nan nan nan nan nan nan nan nan nan 238 nan nan nan nan nan nan nan nan nan nan 258 nan nan nan 267 266 265 262 262 261 258 259 261 261
nan nan nan nan nan nan nan nan nan nan nan nan nan nan nan nan nan nan nan nan nan nan nan nan nan nan nan nan nan nan nan nan nan nan nan nan nan nan nan nan nan nan nan nan nan nan nan nan nan nan nan nan nan nan nan nan nan nan nan nan nan nan nan
nan nan nan nan nan nan nan nan nan nan nan nan nan nan nan nan nan nan nan nan nan nan nan nan nan nan nan nan nan nan nan nan nan nan nan nan nan nan nan nan nan nan nan nan nan nan nan nan nan nan nan nan nan nan nan nan nan nan nan nan nan nan nan
nan nan nan nan nan nan nan nan nan nan nan nan nan nan nan nan nan nan nan nan nan nan nan nan nan nan nan nan nan nan nan nan nan nan nan nan nan nan nan nan nan nan nan nan nan nan nan nan nan nan nan nan nan nan nan nan nan nan nan nan nan nan nan
nan 262 nan nan nan nan nan nan nan nan nan nan nan nan nan nan nan nan nan nan nan nan nan nan nan nan nan nan nan nan nan nan nan nan nan nan nan nan nan nan nan nan nan nan nan nan nan nan nan nan nan nan nan nan nan nan nan nan nan nan nan nan nan
265 261 258 255 nan nan nan nan nan nan nan nan nan nan nan nan nan nan nan nan nan nan nan nan nan nan nan nan nan nan nan nan nan nan nan nan nan nan nan nan nan nan nan nan nan nan nan nan nan nan nan nan nan nan nan nan nan nan nan nan nan nan nan